Weather History for Volk, WI

Change the Weather History Date:

Wednesday, November 7, 2012

  Actual Average Record
Temperature  
Mean Temperature 35 °F -  
Max Temperature 37 °F 44 °F 64 °F (2001)
Min Temperature 33 °F 31 °F 14 °F (2007)
Degree Days  
Heating Degree Days 30    
Moisture  
Dew Point 33 °F    
Average Humidity 93    
Maximum Humidity 100    
Minimum Humidity 81    
Precipitation  
Precipitation 0.00 in - - ()
Sea Level Pressure  
Sea Level Pressure 30.09 in    
Wind  
Wind Speed 4 mph (North)    
Max Wind Speed 7 mph    
Max Gust Speed -    
Visibility 8 miles    
Events      
Averages and records for this station are not official NWS values.
T = Trace of Precipitation, MM = Missing Value Source: NWS Daily Summary

Daily Weather History Graph

Daily Weather History Graph

Search for Another Location

Airport:

Trip Planner

Search our weather history database for the weather conditions in past years. The results will help you decide how hot, cold, wet, or windy it might be!

Date:

Astronomy

Nov. 07, 2012 Rise Set
Actual Time 6:45 AM CST 4:42 PM CST
Civil Twilight 6:15 AM CST 5:13 PM CST
Nautical Twilight 5:40 AM CST 5:47 PM CST
Astronomical Twilight 5:07 AM CST 6:21 PM CST
Moon No Moon Rise 1:04 PM CST (11/7)
Length of Visible Light 10h 58m
Length of Day
9h 57m
Last Quarter, 43% of the Moon is Illuminated
Nov 7
Last Quarter
Nov 13
New
Nov 20
First Quarter
Nov 28
Full
Dec 6
Last Quarter

Hourly Weather History & Observations

Time (CST) Temp. Windchill Dew Point Humidity Pressure Visibility Wind Dir Wind Speed Gust Speed Precip Events Conditions
12:00 AM 35.6 °F 31.7 °F 33.8 °F 93% 29.93 in 2.5 mi NNW 4.6 mph - N/A   Overcast
12:04 AM 35.6 °F 31.7 °F 33.8 °F 93% 29.93 in 3.0 mi NNW 4.6 mph - N/A   Overcast
12:47 AM 33.8 °F 30.8 °F 33.8 °F 100% 29.95 in 6.0 mi North 3.5 mph - N/A   Overcast
12:51 AM 33.8 °F 30.8 °F 33.8 °F 100% 29.95 in 6.0 mi North 3.5 mph - N/A   Overcast
12:55 AM 34.3 °F 30.2 °F 34.0 °F 99% 29.95 in 7.0 mi North 4.6 mph - N/A   Overcast
1:55 AM 34.3 °F - 33.8 °F 98% 29.97 in 7.0 mi Calm Calm - N/A   Overcast
2:55 AM 34.0 °F 28.8 °F 33.4 °F 98% 29.99 in 8.0 mi North 5.8 mph - N/A   Overcast
3:55 AM 33.6 °F 30.6 °F 33.1 °F 98% 30.01 in 5.0 mi NNE 3.5 mph - N/A   Overcast
4:55 AM 33.6 °F 29.4 °F 32.9 °F 97% 30.03 in 6.0 mi NNE 4.6 mph - N/A   Overcast
5:20 AM 33.8 °F 28.6 °F 33.8 °F 100% 30.04 in 7.0 mi NW 5.8 mph - N/A   Overcast
5:25 AM 33.8 °F 27.7 °F 33.8 °F 100% 30.04 in 6.0 mi WNW 6.9 mph - N/A   Overcast
5:39 AM 33.8 °F 28.6 °F 32.0 °F 93% 30.05 in 5.0 mi NW 5.8 mph - N/A   Overcast
5:40 AM 33.8 °F 28.6 °F 32.0 °F 93% 30.05 in 5.0 mi NW 5.8 mph - N/A   Overcast
5:55 AM 33.6 °F 29.4 °F 32.7 °F 96% 30.05 in 5.0 mi NW 4.6 mph - N/A   Overcast
6:44 AM 33.8 °F 29.6 °F 32.0 °F 93% 30.08 in 6.0 mi NW 4.6 mph - N/A   Overcast
6:55 AM 33.6 °F 28.4 °F 32.5 °F 96% 30.09 in 7.0 mi NW 5.8 mph - N/A   Overcast
7:19 AM 33.8 °F - 32.0 °F 93% 30.10 in 7.0 mi Calm Calm - N/A   Overcast
7:55 AM 33.8 °F 28.6 °F 32.0 °F 93% 30.12 in 5.0 mi NW 5.8 mph - N/A   Overcast
8:55 AM 33.8 °F 30.8 °F 33.8 °F 100% 30.12 in 5.0 mi North 3.5 mph - N/A   Overcast
9:55 AM 33.8 °F 30.8 °F 33.8 °F 100% 30.14 in 5.0 mi Variable 3.5 mph - N/A   Overcast
10:13 AM 35.6 °F 32.8 °F 32.0 °F 87% 30.14 in 10.0 mi ENE 3.5 mph - N/A   Overcast
10:21 AM 35.6 °F 32.8 °F 33.8 °F 93% 30.15 in 10.0 mi NNE 3.5 mph - N/A   Overcast
10:30 AM 35.6 °F - 33.8 °F 93% 30.15 in 10.0 mi Calm Calm - N/A   Overcast
10:40 AM 35.6 °F 31.7 °F 33.8 °F 93% 30.15 in 10.0 mi NNW 4.6 mph - N/A   Overcast
10:55 AM 35.6 °F 32.8 °F 33.8 °F 93% 30.14 in 10.0 mi North 3.5 mph - N/A   Overcast
11:55 AM 35.6 °F 32.8 °F 33.8 °F 93% 30.14 in 7.0 mi Variable 3.5 mph - N/A   Overcast
12:55 PM 35.6 °F 29.9 °F 33.8 °F 93% 30.13 in 7.0 mi WSW 6.9 mph - N/A   Overcast
1:55 PM 37.4 °F - 33.8 °F 87% 30.12 in 10.0 mi Calm Calm - N/A   Overcast
2:55 PM 37.4 °F 33.8 °F 33.8 °F 87% 30.13 in 10.0 mi NW 4.6 mph - N/A   Overcast
3:50 PM 37.4 °F 32.8 °F 32.0 °F 81% 30.11 in 10.0 mi East 5.8 mph - N/A   Mostly Cloudy
3:55 PM 35.6 °F 31.7 °F 32.0 °F 87% 30.14 in 10.0 mi East 4.6 mph - N/A   Mostly Cloudy
4:55 PM 33.8 °F - 32.0 °F 93% 30.15 in 10.0 mi Calm Calm - N/A   Overcast
5:55 PM 33.8 °F 30.8 °F 33.8 °F 100% 30.16 in 10.0 mi East 3.5 mph - N/A   Overcast
6:42 PM 35.6 °F 31.7 °F 32.0 °F 87% 30.13 in 10.0 mi ESE 4.6 mph - N/A   Overcast
6:55 PM 35.6 °F - 32.0 °F 87% 30.16 in 10.0 mi Calm Calm - N/A   Overcast
7:55 PM 35.6 °F 32.8 °F 32.0 °F 87% 30.16 in 10.0 mi SE 3.5 mph - N/A   Overcast
8:55 PM 35.6 °F - 32.0 °F 87% 30.16 in 10.0 mi Calm Calm - N/A   Overcast
9:55 PM 35.6 °F - 32.0 °F 87% 30.16 in 10.0 mi Calm Calm - N/A   Overcast
10:55 PM 35.6 °F 31.7 °F 33.8 °F 93% 30.15 in 10.0 mi SSE 4.6 mph - N/A   Overcast
11:55 PM 35.6 °F - 33.8 °F 93% 30.16 in 10.0 mi Calm Calm - N/A   Overcast